Stations météo

réclame
Mon MeteoGroup
Hereford/Credenhill, Grande-Bretagne (3522): Température de l'air & dewpoint: 12.11.2018 04:00:00 - 18.11.2018 04:00:00 (GMT)Hereford/Credenhill, Grande-Bretagne (3522): Température de l'air -20cm & Température de l'air -100cm: 12.11.2018 04:00:00 - 18.11.2018 04:00:00 (GMT)Hereford/Credenhill, Grande-Bretagne (3522): Vitesse du vent: 12.11.2018 04:00:00 - 18.11.2018 04:00:00 (GMT)Hereford/Credenhill, Grande-Bretagne (3522): Direction du vent: 12.11.2018 04:00:00 - 18.11.2018 04:00:00 (GMT)Hereford/Credenhill, Grande-Bretagne (3522): reduced air pressure: 12.11.2018 04:00:00 - 18.11.2018 04:00:00 (GMT)Hereford/Credenhill, Grande-Bretagne (3522): visibility: 12.11.2018 04:00:00 - 18.11.2018 04:00:00 (GMT)Hereford/Credenhill, Grande-Bretagne (3522): Quantités de précipitations: 12.11.2018 04:00:00 - 18.11.2018 04:00:00 (GMT)
Date & Time tt [°C] td [°C] tt -20cm [°C] tt -100cm [°C] ff [km/h] ff [knt] dd ppp [hPa] vv [km] rr [mm]
18.11.2018 04:00:00 4,4 3,7 - - 9 5 NE 1028,3 6 -
18.11.2018 03:00:00 4,4 3,4 - - 11 6 NE 1028,4 6 0,0
18.11.2018 02:00:00 4,1 3,5 - - 9 5 ENE 1028,5 5 0,0
18.11.2018 01:00:00 4,0 3,2 - - 5 3 NE 1028,6 4,6 0,0
18.11.2018 00:00:00 4,8 4,3 - - 8 4 NE 1028,5 6 0,0
17.11.2018 23:00:00 4,7 3,7 - - 5 3 NE 1028,7 6 0,0
17.11.2018 22:00:00 5,6 4,5 - - 11 6 NE 1028,3 8 0,0
17.11.2018 21:00:00 5,4 3,9 - - 5 3 ENE 1028,1 7 0,0
17.11.2018 20:00:00 6,8 5,5 - - 13 7 NE 1027,5 6 0,0
17.11.2018 19:00:00 7,1 5,5 - - 11 6 NE 1027,4 5 0,0
17.11.2018 18:00:00 7,5 5,7 - - 11 6 NE 1027,3 6 0,0
17.11.2018 17:00:00 6,7 4,7 - - 5 3 N 1027,3 8 0,0
17.11.2018 16:00:00 8,2 5,2 - - 11 6 NE 1026,9 10 0,0
17.11.2018 15:00:00 8,8 5,7 - - 15 8 NE 1027,0 10 0,0
17.11.2018 14:00:00 9,2 6,1 - - 15 8 NE 1027,1 11 0,0
17.11.2018 13:00:00 9,3 6,4 - - 13 7 ENE 1027,2 11 0,0
17.11.2018 12:00:00 9,0 6,5 - - 13 7 ENE 1027,4 12 0,0
17.11.2018 11:00:00 8,7 6,6 - - 15 8 ENE 1027,5 11 0,0
17.11.2018 10:00:00 8,7 7,5 - - 13 7 ENE 1027,5 10 0,0
17.11.2018 09:00:00 8,1 7,8 10,2 11,0 9 5 E 1027,3 4,7 0,0
17.11.2018 08:00:00 7,8 7,6 - - 15 8 ENE 1027,0 5 0,0
17.11.2018 07:00:00 8,0 7,9 - - 13 7 ENE 1026,5 2,3 0,2
17.11.2018 06:00:00 8,3 8,1 - - 13 7 ENE 1026,3 4,1 0,0
17.11.2018 05:00:00 8,6 8,4 - - 9 5 ENE 1026,4 3,3 0,0
17.11.2018 04:00:00 8,7 8,5 - - 8 4 E 1026,3 2,8 0,2
17.11.2018 03:00:00 8,8 8,6 - - 8 4 ENE 1026,6 2,6 0,0
17.11.2018 02:00:00 8,9 8,5 - - 9 5 E 1026,7 4,5 0,0
17.11.2018 01:00:00 9,2 8,9 - - 8 4 E 1026,5 3,1 0,0
17.11.2018 00:00:00 9,7 9,3 - - 8 4 E 1026,2 3,3 0,0
16.11.2018 23:00:00 10,2 9,7 - - 9 5 E 1025,9 4,8 0,0
16.11.2018 22:00:00 10,3 10,0 - - 8 4 E 1025,6 3,0 0,0
16.11.2018 21:00:00 10,4 10,1 - - 9 5 E 1025,5 2,9 0,0
16.11.2018 20:00:00 10,6 10,2 - - 13 7 E 1025,2 4,8 0,0
16.11.2018 19:00:00 10,9 10,4 - - 9 5 E 1025,4 4,3 0,0
16.11.2018 18:00:00 11,7 10,4 - - 11 6 E 1025,2 6 0,0
16.11.2018 17:00:00 12,4 10,6 - - 11 6 E 1024,8 12 0,0
16.11.2018 16:00:00 12,9 10,8 - - 11 6 E 1024,3 10 0,0
16.11.2018 15:00:00 13,5 11,1 - - 9 5 E 1024,1 10 0,0
16.11.2018 14:00:00 13,7 11,6 - - 9 5 E 1024,3 10 0,0
16.11.2018 13:00:00 13,3 11,6 - - 5 3 ESE 1024,4 9 0,0
16.11.2018 12:00:00 13,0 11,2 - - 5 3 E 1024,6 12 0,0
16.11.2018 11:00:00 12,6 11,4 - - 4 2 E 1024,7 8 0,0
16.11.2018 10:00:00 12,0 11,3 - - 4 2 ESE 1024,8 4,9 0,0
16.11.2018 09:00:00 11,8 11,3 9,7 11,0 8 4 ESE 1024,6 5 0,0
16.11.2018 08:00:00 11,4 11,1 - - 4 2 E 1024,5 4,1 0,2
16.11.2018 07:00:00 11,2 11,0 - - 5 3 E 1023,7 3,0 0,0
16.11.2018 06:00:00 11,4 11,1 - - 4 2 ENE 1023,0 4,1 0,0
16.11.2018 05:00:00 11,4 11,2 - - 5 3 ENE 1022,5 3,0 0,0
16.11.2018 04:00:00 11,4 11,2 - - 4 2 E 1022,0 3,3 0,0
16.11.2018 03:00:00 11,4 11,2 - - 5 3 E 1021,7 3,5 0,0
16.11.2018 02:00:00 11,5 11,2 - - 2 1 N 1022,0 3,7 0,0
16.11.2018 01:00:00 11,7 11,3 - - 0 0 N 1021,9 4,2 0,0
16.11.2018 00:00:00 11,8 11,5 - - 2 1 ESE 1021,6 5 0,0
15.11.2018 23:00:00 11,8 11,5 - - 2 1 S 1021,2 3,8 0,0
15.11.2018 22:00:00 12,1 11,8 - - 2 1 S 1020,8 5 0,2
15.11.2018 21:00:00 12,2 11,8 - - 4 2 SSE 1020,1 2,6 0,0
15.11.2018 20:00:00 12,4 11,7 - - 5 3 SE 1019,5 3,8 0,0
15.11.2018 19:00:00 11,6 10,7 - - 0 0 N 1019,2 5 0,0
15.11.2018 18:00:00 11,7 10,4 - - 4 2 ENE 1019,1 9 0,0
15.11.2018 17:00:00 12,0 10,1 - - 2 1 SSE 1018,9 12 0,0
15.11.2018 16:00:00 12,1 9,7 - - 0 0 N 1018,8 10 0,0
15.11.2018 15:00:00 12,5 9,7 - - 8 4 SSE 1018,9 14 0,0
15.11.2018 14:00:00 12,6 9,3 - - 8 4 SSE 1019,1 18 0,0
15.11.2018 13:00:00 12,6 9,1 - - 8 4 SE 1019,2 17 0,0
15.11.2018 12:00:00 11,9 9,0 - - 5 3 S 1019,5 17 0,0
15.11.2018 11:00:00 11,5 9,2 - - 11 6 SSE 1019,7 19 0,0
15.11.2018 10:00:00 11,0 8,9 - - 9 5 SE 1019,9 15 0,0
15.11.2018 09:00:00 10,1 9,8 9,7 11,2 4 2 SE 1019,6 10 0,0
15.11.2018 08:00:00 8,5 8,4 - - 4 2 ESE 1019,5 7 0,0
15.11.2018 07:00:00 8,2 8,2 - - 4 2 ENE 1019,3 11 0,0
15.11.2018 06:00:00 6,4 6,4 - - 4 2 E 1019,2 10 0,0
15.11.2018 05:00:00 4,2 4,1 - - 4 2 ENE 1019,2 2,3 0,0
15.11.2018 04:00:00 4,9 4,9 - - 4 2 ENE 1019,2 14 0,0
15.11.2018 03:00:00 4,5 4,1 - - 4 2 ENE 1019,4 9 0,0
15.11.2018 02:00:00 5,6 5,3 - - 5 3 WNW 1019,5 17 0,0
15.11.2018 01:00:00 6,0 5,3 - - 4 2 ENE 1019,5 23 0,0
15.11.2018 00:00:00 7,5 6,6 - - 4 2 ESE 1019,7 26 0,0
14.11.2018 23:00:00 7,3 6,1 - - 2 1 SSE 1019,6 28 0,0
14.11.2018 22:00:00 7,6 6,0 - - 4 2 SE 1019,7 30 0,0
14.11.2018 21:00:00 8,7 7,1 - - 5 3 SSE 1019,7 30 0,0
14.11.2018 20:00:00 8,3 6,9 - - 2 1 SSE 1019,8 29 0,0
14.11.2018 19:00:00 8,8 6,9 - - 5 3 S 1019,6 30 0,0
14.11.2018 18:00:00 8,6 6,5 - - 4 2 SSE 1019,2 40 0,0
14.11.2018 17:00:00 10,4 7,4 - - 8 4 SSE 1018,9 45 0,0
14.11.2018 16:00:00 11,2 7,6 - - 4 2 SSW 1018,8 40 0,0
14.11.2018 15:00:00 12,4 7,7 - - 8 4 S 1018,9 40 0,0
14.11.2018 14:00:00 13,0 7,4 - - 8 4 SW 1018,9 50 0,0
14.11.2018 13:00:00 13,6 8,1 - - 8 4 S 1019,2 55 0,0
14.11.2018 12:00:00 13,6 8,9 - - 8 4 S 1019,5 50 0,0
14.11.2018 11:00:00 12,9 9,1 - - 9 5 SSW 1019,9 35 0,0
14.11.2018 10:00:00 12,5 8,8 - - 8 4 S 1019,9 29 0,0
14.11.2018 09:00:00 12,1 9,1 9,7 11,2 5 3 S 1019,9 26 0,0
14.11.2018 08:00:00 11,5 8,7 - - 9 5 SE 1019,4 29 0,0
14.11.2018 07:00:00 11,4 8,8 - - 5 3 S 1019,0 30 0,0
14.11.2018 06:00:00 11,4 8,6 - - 8 4 SSW 1018,8 30 0,0
14.11.2018 05:00:00 11,4 8,4 - - 5 3 SSW 1018,9 30 0,0
14.11.2018 04:00:00 11,4 8,4 - - 8 4 SSW 1019,1 55 0,0
14.11.2018 03:00:00 11,4 8,5 - - 5 3 SSW 1019,6 40 0,0
14.11.2018 02:00:00 11,4 8,5 - - 8 4 SSW 1019,7 45 0,0
14.11.2018 01:00:00 11,4 8,6 - - 8 4 S 1020,7 29 0,0
14.11.2018 00:00:00 11,1 8,9 - - 8 4 SSW 1021,0 24 0,0
13.11.2018 23:00:00 10,9 8,9 - - 9 5 SSW 1021,0 27 0,0
13.11.2018 22:00:00 10,5 8,6 - - 5 3 S 1021,8 20 0,0
13.11.2018 21:00:00 10,3 8,1 - - 5 3 S 1021,9 30 0,0
13.11.2018 20:00:00 10,6 7,9 - - 4 2 SSE 1022,3 30 0,0
13.11.2018 19:00:00 10,4 8,2 - - 4 2 SSW 1022,5 30 0,0
13.11.2018 18:00:00 9,2 7,3 - - 2 1 SSE 1022,3 30 0,0
13.11.2018 17:00:00 10,2 7,4 - - 4 2 SW 1021,9 30 0,0
13.11.2018 16:00:00 11,1 7,7 - - 2 1 SW 1021,7 24 0,0
13.11.2018 15:00:00 11,9 7,5 - - 5 3 SSW 1021,3 25 0,0
13.11.2018 14:00:00 11,8 7,1 - - 9 5 SSW 1021,2 30 0,0
13.11.2018 13:00:00 12,0 7,7 - - 4 2 SSW 1021,2 35 0,0
13.11.2018 12:00:00 12,0 7,6 - - 8 4 SW 1020,9 25 0,0
13.11.2018 11:00:00 12,2 6,9 - - 11 6 WSW 1020,4 35 0,0
13.11.2018 10:00:00 11,9 7,2 - - 15 8 WSW 1019,7 30 0,0
13.11.2018 09:00:00 10,3 6,7 9,5 11,2 9 5 WSW 1018,5 27 0,0
13.11.2018 08:00:00 9,3 6,2 - - 16 9 WSW 1017,4 30 0,0
13.11.2018 07:00:00 8,6 5,7 - - 9 5 WSW 1016,3 30 0,0
13.11.2018 06:00:00 9,2 5,8 - - 13 7 WSW 1015,3 30 0,0
13.11.2018 05:00:00 9,5 5,6 - - 13 7 WSW 1014,0 50 0,0
13.11.2018 04:00:00 9,6 5,7 - - 15 8 WSW 1012,7 40 0,0
13.11.2018 03:00:00 9,9 6,4 - - 15 8 WSW 1012,3 24 0,0
13.11.2018 02:00:00 8,0 4,8 - - 8 4 SW 1011,4 40 0,2
13.11.2018 01:00:00 7,9 6,7 - - 9 5 SW 1010,7 16 0,0
13.11.2018 00:00:00 7,2 5,8 - - 5 3 SW 1009,9 35 0,0
12.11.2018 23:00:00 7,6 5,8 - - 5 3 SSW 1009,2 35 0,0
12.11.2018 22:00:00 8,8 6,7 - - 9 5 SW 1008,7 22 0,6
12.11.2018 21:00:00 9,2 7,5 - - 8 4 SSW 1008,5 9 0,4
12.11.2018 20:00:00 7,9 6,3 - - 5 3 S 1008,0 35 0,4
12.11.2018 19:00:00 9,8 7,7 - - 5 3 SSW 1007,9 9 0,4
12.11.2018 18:00:00 10,0 7,6 - - 8 4 SSW 1007,8 30 0,0
12.11.2018 17:00:00 10,4 7,6 - - 4 2 SSE 1007,4 35 0,2
12.11.2018 16:00:00 11,8 6,8 - - 9 5 S 1007,0 40 0,0
12.11.2018 15:00:00 12,8 6,8 - - 5 3 S 1006,4 30 0,0
12.11.2018 14:00:00 12,6 6,9 - - 8 4 S 1006,2 35 0,0
12.11.2018 13:00:00 12,4 6,8 - - 9 5 SSW 1005,7 35 0,0
12.11.2018 12:00:00 13,2 7,8 - - 8 4 WSW 1005,8 29 0,0
12.11.2018 11:00:00 12,8 9,2 - - 8 4 S 1006,0 25 0,0
12.11.2018 10:00:00 11,7 8,9 - - 8 4 SSE 1006,1 20 0,0
12.11.2018 09:00:00 10,1 8,5 9,5 11,2 8 4 SSE 1006,2 18 0,0
12.11.2018 08:00:00 8,3 7,5 - - 9 5 SSE 1005,8 18 0,0
12.11.2018 07:00:00 8,5 7,7 - - 8 4 SSE 1005,2 17 0,0
12.11.2018 06:00:00 8,6 7,4 - - 8 4 SSE 1004,9 19 0,0
12.11.2018 05:00:00 8,3 7,4 - - 4 2 SSW 1004,6 20 0,0
12.11.2018 04:00:00 7,9 7,3 - - 5 3 S 1004,1 23 0,0

tt = Température de l'air
td = dewpoint
tt -20cm = Température de l'air -20cm
tt -100cm = Température de l'air -100cm
ff = Vitesse du vent
dd = Direction du vent
ppp = reduced air pressure
vv = visibility
rr = Quantités de précipitations

stations d'obs. à proximité